Find Starlink 32694

NORAD ID: 62494 Int'l Des: 2025-003 Owner: SPXS Country: US Constellation: starlink operational
LEOCIRCULAR

当前视图

正在加载3D地球...

About Starlink 32694

Starlink 32694 (NORAD 62494) is a starlink constellation satellite (v2 mini) launched Jan 6, 2025 by SPXS of US. It operates in LEO, CIRCULAR orbit with a mass of 730.00 kg.

关于 Starlink 32694

正在加载描述...

即将过境

Passes for default location (London). Set your location on the main map for personalized predictions.

高度历史

Loading altitude history...

两行轨道根数

1 62494U 25003H 26171.41668980 -.00016791 00000-0 -60213-3 0 9995
2 62494 43.0006 68.5495 0001570 270.0067 156.5070 15.27573341 5896
Epoch: Jun 20, 2026 • Age: 23 hours

当前状态

高度 491.5 km
速度 7.62 km/s
星下点 -32.68°S, 113.56°W
发射日期 Jan 6, 2025
运行时间 1.4 years
类型 internet

技术详情

分类 Payload
质量 730.00 kg
干质量 700.00 kg
总质量 730.00 kg
长度 0.30 m
直径 4.10 m
跨度 29.00 m
形状 Box + pan
制造商 SPXS
平台类型 Starlink V2M
阶段状态 In Orbit
所有者/国家 SPXS/US

Most Searched